Location: *
(23.5860°S, 65.4036°W)
Time: 10:41:07
(UTC+00:00)

CZ-4C R/B - Pass Details

Date: 25 August 2019
Orbit: 656 x 1346 km, 63.4° (Epoch: 18 September)

Event Time Altitude Azimuth Distance (km) Brightness Sun altitude
Rises 22:57:14 0° 196° (SSW) 3,295 5.4 -11.8°
Reaches altitude 10° 23:00:01 10° 185° (S) 2,271 4.4 -12.5°
Maximum altitude 23:04:32 32° 122° (ESE) 1,188 2.5 -13.5°
Enters shadow 23:07:09 19° 72° (ENE) 1,585 3.1 -14.1°
